JM1YTT-13 Weather Reports


Display with metric or nautical units.
time (UTC)temp
F
wind
direction
speed
MPH
gust
MPH
rain 1hr
in
rain 24hr
in
rain mn
in
humidity
%
barometer
mb
20260509201310 47 336 0.0 0.0 0.00 0.00 0.00 89 1018.4
20260509194310 46 336 0.0 0.0 0.00 0.00 0.00 89 1017.9
20260509191310 47 336 0.0 0.0 0.00 0.00 0.00 88 1017.4
20260509184310 47 336 0.0 0.0 0.00 0.00 0.00 87 1017.1
20260509181310 48 336 0.0 0.0 0.00 0.00 0.00 86 1016.8
20260509174310 48 336 0.0 0.0 0.00 0.00 0.00 87 1016.6
20260509171310 48 336 0.0 0.0 0.00 0.00 0.00 84 1016.5
20260509164310 49 336 0.0 0.0 0.00 0.00 0.00 82 1016.3
20260509161310 49 336 0.0 0.0 0.00 0.00 0.00 81 1016.0
20260509154310 49 336 0.0 0.0 0.00 0.00 0.00 81 1016.0
20260509151310 50 336 0.0 0.0 0.00 0.00 0.00 77 1016.0
20260509144310 51 336 0.0 0.0 0.00 0.00 0.00 75 1015.8
20260509141310 52 336 0.0 0.0 0.00 0.00 0.00 70 1015.5
20260509134310 53 336 0.0 0.0 0.00 0.00 0.00 66 1015.2
20260509131310 54 336 0.0 0.0 0.00 0.00 0.00 64 1015.0
20260509124310 54 336 0.0 0.0 0.00 0.00 0.00 56 1014.6
20260509121310 55 336 0.0 0.0 0.00 0.00 0.00 59 1014.6
20260509114310 57 336 0.0 0.0 0.00 0.00 0.00 47 1014.3
20260509111310 58 336 0.0 0.0 0.00 0.00 0.00 46 1014.0
20260509104310 61 336 0.0 0.0 0.00 0.00 0.00 42 1013.5
20260509101310 63 336 0.0 0.0 0.00 0.00 0.00 36 1013.0
20260509094310 66 336 0.0 0.0 0.00 0.00 0.00 31 1012.6
20260509091310 72 341 0.0 2.0 0.00 0.00 0.00 27 1012.0
20260509084310 74 341 0.0 2.0 0.00 0.00 0.00 26 1011.5
20260509081310 74 341 0.0 2.0 0.00 0.00 0.00 26 1011.0
20260509074310 76 337 0.0 2.0 0.00 0.00 0.00 26 1010.5
20260509071310 76 352 0.0 4.0 0.00 0.00 0.00 26 1010.1
20260509064310 74 337 0.0 2.0 0.00 0.00 0.00 28 1009.6
20260509061310 74 346 0.0 4.0 0.00 0.00 0.00 28 1009.5
20260509054310 74 4 0.0 8.0 0.00 0.00 0.00 30 1009.1
20260509051310 73 345 1.0 4.0 0.00 0.00 0.00 30 1009.4
20260509044310 73 336 1.0 2.0 0.00 0.00 0.00 33 1009.6
20260509041310 72 345 4.0 6.0 0.00 0.00 0.00 32 1009.9
20260509034310 74 351 1.0 12.0 0.00 0.00 0.00 35 1009.8
20260509031310 72 9 2.0 17.0 0.00 0.00 0.00 35 1009.7
20260509024310 71 336 1.0 2.0 0.00 0.00 0.00 38 1009.5
20260509021310 70 337 4.0 6.0 0.00 0.00 0.00 37 1009.2
20260509014310 71 335 3.0 19.0 0.00 0.00 0.00 41 1009.3
20260509011310 69 341 0.0 2.0 0.00 0.00 0.00 39 1009.2
20260509004310 70 2 1.0 4.0 0.00 0.00 0.00 37 1008.7
20260509001310 71 347 0.0 4.0 0.00 0.00 0.00 37 1008.0
20260508234310 70 338 1.0 4.0 0.00 0.00 0.00 38 1008.0
20260508231310 69 5 0.0 0.0 0.00 0.00 0.00 53 1007.5
20260508224310 67 158 0.0 2.0 0.00 0.00 0.00 62 1007.1
20260508221310 63 163 0.0 0.0 0.00 0.00 0.00 82 1006.8
20260508214310 60 178 0.0 0.0 0.00 0.00 0.00 85 1006.2
20260508211310 58 315 0.0 0.0 0.00 0.00 0.00 68 1004.1
20260508204310 58 315 0.0 0.0 0.00 0.00 0.00 68 1004.1